Regional Weather Roundup
Issued by NWS Jackson, KY

Home | Current Version | Previous Version | Graphics & Text | Print | Product List | Glossary On
Versions: 1 2 3 4 5 6 7 8 9 10 11 12 13 14 15 16 17 18 19 20 21 22 23 24 25 26 27
000
ASUS43 KJKL 100010
RWRJKL

EAST KENTUCKY HOURLY WEATHER ROUNDUP
NATIONAL WEATHER SERVICE JACKSON KY
700 PM EST FRI DEC 09 2016

NOTE: "FAIR" INDICATES FEW OR NO CLOUDS BELOW 12,000 FEET WITH
NO SIGNIFICANT WEATHER AND/OR OBSTRUCTIONS TO VISIBILITY.

* THESE REPORTS ARE NOT UNDER NWS QUALITY CONTROL AND MAY NOT
  REPORT WEATHER SUCH AS PRECIPITATION AND FOG.

KYZ079-080-083-085-087-088-110-112-115-119-120-100100
...EASTERN KENTUCKY...

CITY           SKY/WX    TMP DP  RH WIND       PRES   REMARKS
JACKSON        PTCLDY    22  12  65 NW6       30.49F WCI  14
6HR MIN TEMP:  22; 6HR MAX TEMP:  28; 6HR PCP: TRACE;

LONDON         CLEAR     23  13  65 N3        30.51R
6HR MIN TEMP:  23; 6HR MAX TEMP:  31;

SOMERSET*      CLEAR     25  14  63 CALM      30.55S
MONTICELLO*    CLEAR     20  15  81 NE13      30.55R WCI   7
6HR MIN TEMP:  20; 6HR MAX TEMP:  30; 6HR PCP: TRACE;

MIDDLESBORO*   CLEAR     25  17  71 CALM      30.51S
6HR MIN TEMP:  25; 6HR MAX TEMP:  32;

HARLAN APT*    PTCLDY    27  14  59 CALM      30.48R
PIKE CO APT*   CLOUDY    23  16  75 NW5       30.48F WCI  16
MOREHEAD APT*  CLOUDY    23  12  63 W3        30.55S
ASHLAND*       CLOUDY    27  12  54 W7        30.54S WCI  19
$$

KYZ035-036-041-042-044-050-067-078-099-100100
...CENTRAL KENTUCKY...

CITY           SKY/WX    TMP DP  RH WIND       PRES   REMARKS
MT STERLING*   CLOUDY    23  16  74 NW3       30.55S
FLEMING/MASON* CLOUDY    23  13  68 W7        30.56R WCI  14
DANVILLE*      CLOUDY    23  16  74 N5        30.55R WCI  17
LEXINGTON      CLOUDY    24  13  62 NW6       30.54S WCI  17
6HR MIN TEMP:  24; 6HR MAX TEMP:  25;

FRANKFORT      CLOUDY    25  12  58 NW3       30.55S
6HR MIN TEMP:  24; 6HR MAX TEMP:  25; 6HR PCP: TRACE;

LEBANON*         N/A     23  14  68 CALM      30.55F
GLASGOW*       CLEAR     26  18  70 N6        30.54F WCI  20
BOWLING GREEN  CLEAR     28  16  60 N5        30.56F WCI  23
6HR MIN TEMP:  28; 6HR MAX TEMP:  34;

$$

KYZ091>093-OHZ055-061-077-WVZ005-015-034-035-042-100100
...SOUTHERN OHIO/WEST VIRGINIA...

CITY           SKY/WX    TMP DP  RH WIND       PRES   REMARKS
COVINGTON      FLURRIES  24  14  65 W9        30.54R WCI  14
COLUMBUS       LGT SNOW  25  21  85 W10       30.48S FOG     WCI  15
WILMINGTON     CLOUDY    23  15  71 SW14      30.50R WCI  11
HUNTINGTON     CLOUDY    25  13  60 W5        30.53S WCI  19
CHARLESTON     FLURRIES  25  12  58 VRB5      30.51R WCI  19
PINEVILLE*       N/A     24  11  56 MISG      30.50R
BECKLEY        CLOUDY    19  11  70 W8        30.39S WCI   9
BLUEFIELD      MOCLDY    16   8  71 W7        30.37S WCI   6
LOGAN CO APT*  CLOUDY    23  14  68 VRB3      30.47R
$$

VAZ002-007-008-TNZ017-027-036-066-071-100100
...SOUTHWEST VIRGINIA/EAST TENNESSEE...

CITY           SKY/WX    TMP DP  RH WIND       PRES   REMARKS
WISE*          PTCLDY    19  12  73 CALM      30.40S
ABINGDON*      CLEAR     25  14  65 CALM      30.42S
BRISTOL        CLEAR     26  13  57 W5        30.46R WCI  20
MORRISTOWN*    PTCLDY    28  16  59 CALM      30.47R
SEVIERVILLE*   CLEAR     27  14  59 CALM      30.49R
KNOXVILLE      CLEAR     30  15  53 NE5       30.49S WCI  25
OAK RIDGE      CLEAR     30  17  58 CALM      30.52R
CROSSVILLE     CLEAR     25  14  63 N5        30.46S WCI  19
NASHVILLE      CLEAR     30  15  53 N8        30.55S WCI  22
$$

...KEY TO REMARKS...
VSB - VISIBILITY IN MILES
WCI - WIND CHILL INDEX
HX  - HEAT INDEX

$$




USA.gov is the U.S. government's official web portal to all federal, state and local government web resources and services.